THORAD AGENA D DEB, 4990

Orbit data source: Space-Track

THORAD AGENA D DEB, 4990 is space debris in SSO originally from a launch on Wed, 08 Apr 1970 UTC launched from the Air Force Western Test Range (AFWTR). Debris objects in space refer to the collection of defunct objects orbiting the Earth. Examples of debris include non-operational satellites, rocket bodies, and fragments generated from explosions, collisions, or faulty payload assembly.

Loading next visibility...
Identifier
4990, 1970-025HL
Orbit
SSO
Country
Flag of USUS
Related business
Manufacturer
Unknown
Mission
Spacecraft
Bus & Motor
Unknown
Mass
Unknown
Launch date (UTC)
1970-04-08 (56 years ago)
Launch vehicle
Unknown
Launch site
Air Force Western Test Range (AFWTR)
Object type
Payload
Rocket body
Debris
Shape & HBR
Unknown shape, 0.1 m
Radar Cross Section
Small (<0.1 m²)

Expand to show TLE details & history
Last TLE update: 1 day ago

TLE from 1 day ago
0 THORAD AGENA D DEB
1 04990U 70025HL  26122.30820042  .00003075  00000-0  19256-2 0  9998
2 04990 100.0058 261.2596 0053232 192.0378 167.9517 14.04769959814007
Epoch: 2026-05-02T07:23Z
TLE epoch observation values (Epoch: 2026-05-02T07:23:48.516Z)
Latitude
-0.00001°
Longitude
-69.92052°
Altitude
917.961 km
Speed
7.374 km/s
True Right ascension
17h 25m 02s
True Declination
0° 00' 00"
Sunlit
Object was in full shadow at epoch
Visualization orbit readout
Latitude
Unknown
Longitude
Unknown
Altitude
Unknown
Speed
Unknown
Apparent Right ascension
Unknown
Apparent Declination
Unknown
Sunlit
N/A
Visualization observer readout
Local Sidereal Time
14:43:19
Azimuth
Unknown
Elevation
Unknown
Doppler factor
Unknown
Orbital elements
Apogee altitude
913.177 km
Perigee altitude
835.962 km
Semi-major axis
7,252.706 km
Eccentricity
0.00532
Inclination
100.0058°
RAAN
261.2596°
Arg. of periapsis
192.0378°
True anomaly
168.0782°
Mean anomaly
167.9517°
Eccentric anomaly
168.01503°
Mean motion
3.51393 °/min
Orbital period
102.45 mins
BSTAR
0.0019256
Loading maneuver chart data...
Computing Atmospheric mass density...

Documentation

Showing up to 5 results
|